sat.trackr.live / text

‹ back to catalog

KUIPER-00175

NORAD 67135 · 2025-301C

PAYLOAD ACTIVE UNKNOWN

§ Identity

Operator
Country
US
Launch date
2025-12-16
Launch site
AFETR
Launch vehicle
Mass (kg)
RCS (m²)

External: N2YO · Heavens-Above · Gunter

§ Orbital elements

Epoch: 2026-09-20T13:35:28.192128Z

Period
97.30 min
Inclination
51.8998°
Eccentricity
0.0000590
Mean motion
14.79936427 rev/d
Perigee alt
629.1 km
Apogee alt
629.9 km
Semi-major
7,007.7 km
B*
2.4160e-4
RAAN
268.8337°
Arg perigee
46.7242°
Mean anomaly
313.3769°
Rev number
4,287

§ Raw data

KUIPER-001751 67135U 25301C   26263.56629852  .00001621  00000+0  24160-3 0  99902 67135  51.8998 268.8337 0000590  46.7242 313.3769 14.79936427 42875

JSON: /api/v1/satellites/67135 · /tle

For live sub-satellite position, see the globe view (requires WebGL).

§ Visibility from observer

Set your observer location to see the next 7 days of passes ≥ 10°. The values pass through the URL so the page stays shareable.

No JS? Fill the form by hand. The geolocation button needs JavaScript.